Time,TemperatureF,DewpointF,PressureIn,WindDirection,WindDirectionDegrees,WindSpeedMPH,WindSpeedGustMPH,Humidity,HourlyPrecipIn,Conditions,Clouds,dailyrainin,SoftwareType,DateUTC
2013-09-11 00:02:00,72.0,61.7,27.37,East,90,0.0,0.7,70,0.00,,,0.00,WUHU216HW,2013-09-11 07:02:00,
2013-09-11 00:07:00,72.0,61.7,27.37,ENE,68,0.0,0.0,70,0.00,,,0.00,WUHU216HW,2013-09-11 07:07:00,
2013-09-11 00:12:00,72.0,61.7,27.37,NE,45,0.0,0.4,70,0.00,,,0.00,WUHU216HW,2013-09-11 07:12:00,
2013-09-11 00:17:00,71.8,61.6,27.37,ENE,68,0.0,0.4,70,0.00,,,0.00,WUHU216HW,2013-09-11 07:17:00,
2013-09-11 00:22:00,71.8,61.6,27.37,ENE,68,0.0,0.0,70,0.00,,,0.00,WUHU216HW,2013-09-11 07:22:00,
2013-09-11 00:27:00,71.6,61.4,27.37,ENE,68,0.0,0.0,70,0.00,,,0.00,WUHU216HW,2013-09-11 07:27:00,
2013-09-11 00:32:00,71.8,61.6,27.37,SE,135,0.7,0.7,70,0.00,,,0.00,WUHU216HW,2013-09-11 07:32:00,
2013-09-11 00:37:00,71.6,61.4,27.37,SE,135,0.0,0.7,70,0.00,,,0.00,WUHU216HW,2013-09-11 07:37:00,
2013-09-11 00:42:00,71.6,61.4,27.37,SE,135,0.0,0.7,70,0.00,,,0.00,WUHU216HW,2013-09-11 07:42:00,
2013-09-11 00:47:00,71.6,61.4,27.37,SE,135,0.0,0.4,70,0.00,,,0.00,WUHU216HW,2013-09-11 07:47:00,
2013-09-11 00:52:00,71.5,61.6,27.37,ENE,68,0.2,0.7,71,0.00,,,0.00,WUHU216HW,2013-09-11 07:52:00,
2013-09-11 00:57:00,71.5,61.6,27.37,ENE,68,0.0,0.9,71,0.00,,,0.00,WUHU216HW,2013-09-11 07:57:00,
2013-09-11 01:02:00,71.3,61.4,27.37,East,90,0.0,0.9,71,0.00,,,0.00,WUHU216HW,2013-09-11 08:02:00,
2013-09-11 01:07:00,71.3,61.4,27.37,East,90,0.0,0.0,71,0.00,,,0.00,WUHU216HW,2013-09-11 08:07:00,
2013-09-11 01:12:00,71.3,61.4,27.37,East,90,0.0,0.0,71,0.00,,,0.00,WUHU216HW,2013-09-11 08:12:00,
2013-09-11 01:17:00,71.3,61.4,27.37,East,90,0.0,0.0,71,0.00,,,0.00,WUHU216HW,2013-09-11 08:17:00,
2013-09-11 01:22:00,71.3,61.4,27.37,East,90,0.0,0.0,71,0.00,,,0.00,WUHU216HW,2013-09-11 08:22:00,
2013-09-11 01:27:00,71.3,61.4,27.37,East,90,0.0,0.0,71,0.00,,,0.00,WUHU216HW,2013-09-11 08:27:00,
2013-09-11 01:32:00,71.1,61.2,27.37,East,90,0.0,0.0,71,0.00,,,0.00,WUHU216HW,2013-09-11 08:32:00,
2013-09-11 01:37:00,70.9,61.4,27.37,East,90,0.0,0.0,72,0.00,,,0.00,WUHU216HW,2013-09-11 08:37:00,
2013-09-11 01:42:00,70.7,61.2,27.37,East,90,0.0,0.0,72,0.00,,,0.00,WUHU216HW,2013-09-11 08:42:00,
2013-09-11 01:47:00,70.7,61.2,27.37,East,90,0.0,0.0,72,0.00,,,0.00,WUHU216HW,2013-09-11 08:47:00,
2013-09-11 01:52:00,70.6,61.0,27.37,East,90,0.0,0.0,72,0.00,,,0.00,WUHU216HW,2013-09-11 08:52:00,
2013-09-11 01:57:00,70.6,61.5,27.37,East,90,0.0,0.0,73,0.00,,,0.00,WUHU216HW,2013-09-11 08:57:00,
2013-09-11 02:02:00,70.6,61.5,27.37,East,90,0.0,0.0,73,0.00,,,0.00,WUHU216HW,2013-09-11 09:02:00,
2013-09-11 02:07:00,70.4,61.3,27.37,East,90,0.0,0.0,73,0.00,,,0.00,WUHU216HW,2013-09-11 09:07:00,
2013-09-11 02:12:00,70.4,61.3,27.37,East,90,0.0,0.0,73,0.00,,,0.00,WUHU216HW,2013-09-11 09:12:00,
2013-09-11 02:17:00,70.4,61.3,27.37,East,90,0.0,0.0,73,0.00,,,0.00,WUHU216HW,2013-09-11 09:17:00,
2013-09-11 02:22:00,70.2,61.5,27.36,East,90,0.0,0.0,74,0.00,,,0.00,WUHU216HW,2013-09-11 09:22:00,
2013-09-11 02:28:00,70.2,61.5,27.36,East,90,0.0,0.0,74,0.00,,,0.00,WUHU216HW,2013-09-11 09:28:00,
2013-09-11 02:33:00,70.2,61.5,27.36,East,90,0.0,0.0,74,0.00,,,0.00,WUHU216HW,2013-09-11 09:33:00,
2013-09-11 02:38:00,70.2,61.5,27.36,East,90,0.0,0.0,74,0.00,,,0.00,WUHU216HW,2013-09-11 09:38:00,
2013-09-11 02:43:00,70.0,61.3,27.36,East,90,0.0,0.0,74,0.00,,,0.00,WUHU216HW,2013-09-11 09:43:00,
2013-09-11 02:48:00,69.8,61.1,27.36,East,90,0.0,0.0,74,0.00,,,0.00,WUHU216HW,2013-09-11 09:48:00,
2013-09-11 02:53:00,69.8,61.1,27.36,East,90,0.0,0.0,74,0.00,,,0.00,WUHU216HW,2013-09-11 09:53:00,
2013-09-11 02:58:00,69.8,61.5,27.36,East,90,0.0,0.0,75,0.00,,,0.00,WUHU216HW,2013-09-11 09:58:00,
2013-09-11 03:03:00,69.7,61.3,27.36,North,0,0.0,0.0,75,0.00,,,0.00,WUHU216HW,2013-09-11 10:03:00,
2013-09-11 03:08:00,69.5,61.1,27.36,North,0,0.0,0.0,75,0.00,,,0.00,WUHU216HW,2013-09-11 10:08:00,
2013-09-11 03:13:00,69.5,61.1,27.36,North,0,0.0,0.0,75,0.00,,,0.00,WUHU216HW,2013-09-11 10:13:00,
2013-09-11 03:18:00,69.3,61.4,27.36,North,0,0.0,0.0,76,0.00,,,0.00,WUHU216HW,2013-09-11 10:18:00,
2013-09-11 03:23:00,69.3,61.4,27.36,North,0,0.0,0.0,76,0.00,,,0.00,WUHU216HW,2013-09-11 10:23:00,
2013-09-11 03:28:00,69.1,61.2,27.36,North,0,0.0,0.0,76,0.00,,,0.00,WUHU216HW,2013-09-11 10:28:00,
2013-09-11 03:33:00,69.1,61.2,27.36,North,0,0.0,0.0,76,0.00,,,0.00,WUHU216HW,2013-09-11 10:33:00,
2013-09-11 03:38:00,68.9,61.4,27.36,North,0,0.0,0.0,77,0.00,,,0.00,WUHU216HW,2013-09-11 10:38:00,
2013-09-11 03:43:00,68.8,61.3,27.36,North,0,0.0,0.0,77,0.00,,,0.00,WUHU216HW,2013-09-11 10:43:00,
2013-09-11 03:48:00,68.8,61.3,27.36,North,0,0.0,0.0,77,0.00,,,0.00,WUHU216HW,2013-09-11 10:48:00,
2013-09-11 03:53:00,68.6,61.1,27.37,North,0,0.0,0.0,77,0.00,,,0.00,WUHU216HW,2013-09-11 10:53:00,
2013-09-11 03:58:00,68.6,61.1,27.36,North,0,0.0,0.0,77,0.00,,,0.00,WUHU216HW,2013-09-11 10:58:00,
2013-09-11 04:03:00,68.6,61.1,27.37,North,0,0.0,0.0,77,0.00,,,0.00,WUHU216HW,2013-09-11 11:03:00,
2013-09-11 04:08:00,68.4,60.9,27.37,North,0,0.0,0.0,77,0.00,,,0.00,WUHU216HW,2013-09-11 11:08:00,
2013-09-11 04:13:00,68.4,60.9,27.37,North,0,0.0,0.0,77,0.00,,,0.00,WUHU216HW,2013-09-11 11:13:00,
2013-09-11 04:18:00,68.4,60.9,27.37,North,0,0.0,0.0,77,0.00,,,0.00,WUHU216HW,2013-09-11 11:18:00,
2013-09-11 04:23:00,68.2,61.1,27.37,North,0,0.0,0.0,78,0.00,,,0.00,WUHU216HW,2013-09-11 11:23:00,
2013-09-11 04:28:00,68.0,61.0,27.36,North,0,0.0,0.0,78,0.00,,,0.00,WUHU216HW,2013-09-11 11:28:00,
2013-09-11 04:33:00,68.0,61.0,27.36,North,0,0.0,0.0,78,0.00,,,0.00,WUHU216HW,2013-09-11 11:33:00,
2013-09-11 04:38:00,67.9,60.9,27.36,North,0,0.0,0.0,78,0.00,,,0.00,WUHU216HW,2013-09-11 11:38:00,
2013-09-11 04:43:00,67.9,60.9,27.36,North,0,0.0,0.0,78,0.00,,,0.00,WUHU216HW,2013-09-11 11:43:00,
2013-09-11 04:48:00,67.9,60.9,27.37,North,0,0.0,0.0,78,0.00,,,0.00,WUHU216HW,2013-09-11 11:48:00,
2013-09-11 04:53:00,67.7,61.0,27.37,North,0,0.0,0.0,79,0.00,,,0.00,WUHU216HW,2013-09-11 11:53:00,
2013-09-11 04:58:00,67.7,61.0,27.37,North,0,0.0,0.0,79,0.00,,,0.00,WUHU216HW,2013-09-11 11:58:00,
2013-09-11 05:03:00,67.7,61.0,27.37,North,0,0.0,0.4,79,0.00,,,0.00,WUHU216HW,2013-09-11 12:03:00,
2013-09-11 05:08:00,67.5,60.9,27.37,North,0,0.0,0.4,79,0.00,,,0.00,WUHU216HW,2013-09-11 12:08:00,
2013-09-11 05:13:00,67.5,60.9,27.37,North,0,0.0,0.4,79,0.00,,,0.00,WUHU216HW,2013-09-11 12:13:00,
2013-09-11 05:18:00,67.5,60.9,27.37,North,0,0.0,0.4,79,0.00,,,0.00,WUHU216HW,2013-09-11 12:18:00,
2013-09-11 05:23:00,67.3,60.7,27.37,North,0,0.0,0.0,79,0.00,,,0.00,WUHU216HW,2013-09-11 12:23:00,
2013-09-11 05:28:00,67.3,60.7,27.37,NNE,23,0.0,0.0,79,0.00,,,0.00,WUHU216HW,2013-09-11 12:28:00,
2013-09-11 05:33:00,67.3,60.7,27.37,SE,135,0.4,0.4,79,0.00,,,0.00,WUHU216HW,2013-09-11 12:33:00,
2013-09-11 05:38:00,67.3,60.7,27.38,SE,135,0.0,0.4,79,0.00,,,0.00,WUHU216HW,2013-09-11 12:38:00,
2013-09-11 05:43:00,67.3,60.7,27.38,East,90,0.0,0.4,79,0.00,,,0.00,WUHU216HW,2013-09-11 12:43:00,
2013-09-11 05:48:00,67.3,60.7,27.38,East,90,0.0,0.0,79,0.00,,,0.00,WUHU216HW,2013-09-11 12:48:00,
2013-09-11 05:53:00,67.3,60.7,27.38,East,90,0.0,0.0,79,0.00,,,0.00,WUHU216HW,2013-09-11 12:53:00,
2013-09-11 05:58:00,67.1,60.5,27.38,East,90,0.0,0.0,79,0.00,,,0.00,WUHU216HW,2013-09-11 12:58:00,
2013-09-11 06:03:00,67.1,60.5,27.38,East,90,0.0,0.0,79,0.00,,,0.00,WUHU216HW,2013-09-11 13:03:00,
2013-09-11 06:08:00,67.1,60.5,27.38,East,90,0.0,0.0,79,0.00,,,0.00,WUHU216HW,2013-09-11 13:08:00,
2013-09-11 06:13:00,67.1,60.5,27.39,East,90,0.0,0.0,79,0.00,,,0.00,WUHU216HW,2013-09-11 13:13:00,
2013-09-11 06:18:00,67.1,60.5,27.39,East,90,0.0,0.0,79,0.00,,,0.00,WUHU216HW,2013-09-11 13:18:00,
2013-09-11 06:23:00,67.1,60.5,27.39,ENE,68,0.0,0.0,79,0.00,,,0.00,WUHU216HW,2013-09-11 13:23:00,
2013-09-11 06:27:00,67.0,60.7,27.39,ENE,68,0.0,0.0,80,0.00,,,0.00,WUHU216HW,2013-09-11 13:27:00,
2013-09-11 06:28:00,67.0,60.7,27.39,ENE,68,0.0,0.0,80,0.00,,,0.00,WUHU216HW,2013-09-11 13:28:00,
2013-09-11 06:33:00,67.0,60.7,27.39,ENE,68,0.0,0.0,80,0.00,,,0.00,WUHU216HW,2013-09-11 13:33:00,
2013-09-11 06:57:00,67.3,61.0,27.41,ESE,113,0.0,0.0,80,0.00,,,0.00,WUHU216HW,2013-09-11 13:57:00,
2013-09-11 07:02:00,67.7,61.4,27.41,SE,135,0.0,0.0,80,0.00,,,0.00,WUHU216HW,2013-09-11 14:02:00,
2013-09-11 07:07:00,67.9,61.6,27.41,SE,135,0.0,0.0,80,0.00,,,0.00,WUHU216HW,2013-09-11 14:07:00,
2013-09-11 07:12:00,68.0,61.4,27.41,SE,135,0.0,0.9,79,0.00,,,0.00,WUHU216HW,2013-09-11 14:12:00,
2013-09-11 07:17:00,68.2,61.6,27.41,SE,135,0.4,0.9,79,0.00,,,0.00,WUHU216HW,2013-09-11 14:17:00,
2013-09-11 07:22:00,68.4,61.3,27.41,SE,135,0.0,0.4,78,0.00,,,0.00,WUHU216HW,2013-09-11 14:22:00,
2013-09-11 07:27:00,68.8,61.3,27.41,SSE,158,0.0,0.4,77,0.00,,,0.00,WUHU216HW,2013-09-11 14:27:00,
2013-09-11 07:32:00,68.9,61.4,27.41,ENE,68,0.2,0.4,77,0.00,,,0.00,WUHU216HW,2013-09-11 14:32:00,
2013-09-11 07:37:00,69.3,61.0,27.41,NE,45,0.0,0.2,75,0.00,,,0.00,WUHU216HW,2013-09-11 14:37:00,
2013-09-11 07:42:00,69.7,60.9,27.41,NE,45,0.0,0.2,74,0.00,,,0.00,WUHU216HW,2013-09-11 14:42:00,
2013-09-11 07:47:00,69.8,61.1,27.41,ENE,68,0.0,0.0,74,0.00,,,0.00,WUHU216HW,2013-09-11 14:47:00,
2013-09-11 07:52:00,70.2,61.1,27.41,SW,225,0.7,0.7,73,0.00,,,0.00,WUHU216HW,2013-09-11 14:52:00,
2013-09-11 07:57:00,70.6,61.5,27.41,WSW,248,0.7,0.7,73,0.00,,,0.00,WUHU216HW,2013-09-11 14:57:00,
2013-09-11 08:02:00,70.9,61.8,27.42,SSW,203,1.1,1.8,73,0.00,,,0.00,WUHU216HW,2013-09-11 15:02:00,
2013-09-11 08:07:00,71.3,61.7,27.42,WSW,248,0.7,1.8,72,0.00,,,0.00,WUHU216HW,2013-09-11 15:07:00,
2013-09-11 08:12:00,71.6,62.1,27.42,WSW,248,0.0,1.8,72,0.00,,,0.00,WUHU216HW,2013-09-11 15:12:00,
2013-09-11 08:17:00,72.0,62.5,27.42,WSW,248,0.0,1.8,72,0.00,,,0.00,WUHU216HW,2013-09-11 15:17:00,
2013-09-11 08:22:00,72.2,62.6,27.42,WSW,248,0.2,1.1,72,0.00,,,0.00,WUHU216HW,2013-09-11 15:22:00,
2013-09-11 08:27:00,72.5,62.6,27.42,West,270,0.4,0.9,71,0.00,,,0.00,WUHU216HW,2013-09-11 15:27:00,
2013-09-11 08:32:00,72.9,63.0,27.42,WNW,293,1.1,1.1,71,0.00,,,0.00,WUHU216HW,2013-09-11 15:32:00,
2013-09-11 08:37:00,73.1,63.2,27.42,WNW,293,0.0,1.1,71,0.00,,,0.00,WUHU216HW,2013-09-11 15:37:00,
2013-09-11 08:42:00,73.4,63.5,27.42,SSW,203,0.7,1.1,71,0.00,,,0.00,WUHU216HW,2013-09-11 15:42:00,
2013-09-11 08:47:00,73.8,63.9,27.42,SSE,158,0.0,1.1,71,0.00,,,0.00,WUHU216HW,2013-09-11 15:47:00,
2013-09-11 08:52:00,74.2,63.8,27.42,SE,135,0.7,0.7,70,0.00,,,0.00,WUHU216HW,2013-09-11 15:52:00,
2013-09-11 08:57:00,74.5,63.7,27.42,WSW,248,0.7,0.7,69,0.00,,,0.00,WUHU216HW,2013-09-11 15:57:00,
2013-09-11 09:02:00,75.1,63.4,27.42,WSW,248,0.7,1.1,67,0.00,,,0.00,WUHU216HW,2013-09-11 16:02:00,
2013-09-11 09:07:00,75.4,63.3,27.42,WNW,293,1.3,1.3,66,0.00,,,0.00,WUHU216HW,2013-09-11 16:07:00,
2013-09-11 09:12:00,75.8,63.2,27.42,WSW,248,0.4,1.3,65,0.00,,,0.00,WUHU216HW,2013-09-11 16:12:00,
2013-09-11 09:17:00,76.0,62.9,27.42,North,0,0.4,1.1,64,0.00,,,0.00,WUHU216HW,2013-09-11 16:17:00,
2013-09-11 09:22:00,76.5,62.9,27.42,NE,45,1.3,1.3,63,0.00,,,0.00,WUHU216HW,2013-09-11 16:22:00,
2013-09-11 09:27:00,76.7,63.1,27.42,WSW,248,2.0,2.0,63,0.00,,,0.00,WUHU216HW,2013-09-11 16:27:00,
2013-09-11 09:33:00,77.0,63.5,27.42,SW,225,0.9,2.0,63,0.00,,,0.00,WUHU216HW,2013-09-11 16:33:00,
2013-09-11 09:38:00,77.4,62.9,27.42,WNW,293,0.0,1.8,61,0.00,,,0.00,WUHU216HW,2013-09-11 16:38:00,
2013-09-11 09:43:00,77.8,63.3,27.42,ESE,113,1.6,2.2,61,0.00,,,0.00,WUHU216HW,2013-09-11 16:43:00,
2013-09-11 09:48:00,78.3,63.4,27.42,NNE,23,0.0,2.2,60,0.00,,,0.00,WUHU216HW,2013-09-11 16:48:00,
2013-09-11 09:53:00,78.7,63.2,27.42,WSW,248,1.1,2.5,59,0.00,,,0.00,WUHU216HW,2013-09-11 16:53:00,
2013-09-11 09:58:00,79.0,63.5,27.42,South,180,1.6,2.5,59,0.00,,,0.00,WUHU216HW,2013-09-11 16:58:00,
2013-09-11 10:03:00,79.6,63.6,27.42,SW,225,0.9,1.8,58,0.00,,,0.00,WUHU216HW,2013-09-11 17:03:00,
2013-09-11 10:08:00,79.9,63.3,27.42,West,270,0.2,1.6,57,0.00,,,0.00,WUHU216HW,2013-09-11 17:08:00,
2013-09-11 10:13:00,80.3,63.6,27.42,WSW,248,0.4,1.8,57,0.00,,,0.00,WUHU216HW,2013-09-11 17:13:00,
2013-09-11 10:18:00,80.6,63.5,27.42,NW,315,0.9,1.8,56,0.00,,,0.00,WUHU216HW,2013-09-11 17:18:00,
2013-09-11 10:23:00,80.8,63.1,27.42,SW,225,0.2,1.1,55,0.00,,,0.00,WUHU216HW,2013-09-11 17:23:00,
2013-09-11 10:28:00,81.0,62.7,27.41,NE,45,0.4,0.9,54,0.00,,,0.00,WUHU216HW,2013-09-11 17:28:00,
2013-09-11 10:33:00,81.2,62.9,27.41,ENE,68,1.1,1.1,54,0.00,,,0.00,WUHU216HW,2013-09-11 17:33:00,
2013-09-11 10:38:00,81.5,63.2,27.41,SE,135,2.9,2.9,54,0.00,,,0.00,WUHU216HW,2013-09-11 17:38:00,
2013-09-11 10:43:00,81.9,63.0,27.41,West,270,0.4,2.9,53,0.00,,,0.00,WUHU216HW,2013-09-11 17:43:00,
2013-09-11 10:48:00,82.4,63.0,27.41,SW,225,0.2,1.8,52,0.00,,,0.00,WUHU216HW,2013-09-11 17:48:00,
2013-09-11 10:53:00,82.8,62.8,27.41,SSE,158,1.1,1.1,51,0.00,,,0.00,WUHU216HW,2013-09-11 17:53:00,
2013-09-11 10:58:00,83.3,62.8,27.41,ESE,113,2.2,2.9,50,0.00,,,0.00,WUHU216HW,2013-09-11 17:58:00,
2013-09-11 11:03:00,83.7,62.6,27.40,SW,225,1.1,2.9,49,0.00,,,0.00,WUHU216HW,2013-09-11 18:03:00,
2013-09-11 11:08:00,83.9,61.5,27.40,WSW,248,0.4,2.9,47,0.00,,,0.00,WUHU216HW,2013-09-11 18:08:00,
2013-09-11 11:13:00,84.1,60.4,27.40,SW,225,1.8,1.8,45,0.00,,,0.00,WUHU216HW,2013-09-11 18:13:00,
2013-09-11 11:18:00,84.1,59.1,27.40,WSW,248,1.8,2.2,43,0.00,,,0.00,WUHU216HW,2013-09-11 18:18:00,
2013-09-11 11:23:00,83.7,56.2,27.40,NW,315,0.9,2.2,39,0.00,,,0.00,WUHU216HW,2013-09-11 18:23:00,
2013-09-11 11:28:00,83.7,58.1,27.40,WSW,248,0.9,2.2,42,0.00,,,0.00,WUHU216HW,2013-09-11 18:28:00,
2013-09-11 11:33:00,83.9,57.7,27.40,WNW,293,0.4,1.8,41,0.00,,,0.00,WUHU216HW,2013-09-11 18:33:00,
2013-09-11 11:38:00,84.2,58.7,27.40,SSE,158,0.7,2.9,42,0.00,,,0.00,WUHU216HW,2013-09-11 18:38:00,
2013-09-11 11:43:00,84.6,59.1,27.40,WSW,248,0.9,2.9,42,0.00,,,0.00,WUHU216HW,2013-09-11 18:43:00,
2013-09-11 11:48:00,85.0,59.3,27.40,SSW,203,1.8,2.0,42,0.00,,,0.00,WUHU216HW,2013-09-11 18:48:00,
2013-09-11 11:53:00,85.3,59.7,27.39,SW,225,2.5,2.5,42,0.00,,,0.00,WUHU216HW,2013-09-11 18:53:00,
2013-09-11 11:58:00,85.5,59.9,27.39,West,270,0.2,2.5,42,0.00,,,0.00,WUHU216HW,2013-09-11 18:58:00,
2013-09-11 12:03:00,85.7,59.3,27.39,WNW,293,2.0,2.7,41,0.00,,,0.00,WUHU216HW,2013-09-11 19:03:00,
2013-09-11 12:08:00,85.7,58.7,27.39,WSW,248,1.6,2.7,40,0.00,,,0.00,WUHU216HW,2013-09-11 19:08:00,
2013-09-11 12:13:00,85.7,59.3,27.38,SW,225,2.0,2.5,41,0.00,,,0.00,WUHU216HW,2013-09-11 19:13:00,
2013-09-11 12:18:00,86.0,60.9,27.38,North,0,2.7,2.7,43,0.00,,,0.00,WUHU216HW,2013-09-11 19:18:00,
2013-09-11 12:23:00,86.2,60.5,27.38,East,90,0.4,2.7,42,0.00,,,0.00,WUHU216HW,2013-09-11 19:23:00,
2013-09-11 12:28:00,86.4,60.7,27.38,SSE,158,0.7,2.0,42,0.00,,,0.00,WUHU216HW,2013-09-11 19:28:00,
2013-09-11 12:33:00,86.6,58.8,27.37,NW,315,1.8,2.9,39,0.00,,,0.00,WUHU216HW,2013-09-11 19:33:00,
2013-09-11 12:38:00,86.4,58.6,27.37,WSW,248,0.9,2.9,39,0.00,,,0.00,WUHU216HW,2013-09-11 19:38:00,
2013-09-11 12:43:00,86.4,60.0,27.37,NW,315,0.7,2.7,41,0.00,,,0.00,WUHU216HW,2013-09-11 19:43:00,
2013-09-11 12:48:00,86.6,58.8,27.37,NW,315,1.8,1.8,39,0.00,,,0.00,WUHU216HW,2013-09-11 19:48:00,
2013-09-11 12:53:00,86.8,58.9,27.37,SSW,203,0.4,1.8,39,0.00,,,0.00,WUHU216HW,2013-09-11 19:53:00,
2013-09-11 12:58:00,87.1,60.0,27.37,SE,135,0.7,1.8,40,0.00,,,0.00,WUHU216HW,2013-09-11 19:58:00,
2013-09-11 13:03:00,87.7,60.5,27.37,SSE,158,2.5,2.7,40,0.00,,,0.00,WUHU216HW,2013-09-11 20:03:00,
2013-09-11 13:08:00,88.6,61.2,27.36,NE,45,1.1,2.7,40,0.00,,,0.00,WUHU216HW,2013-09-11 20:08:00,
2013-09-11 13:13:00,88.6,60.4,27.36,WSW,248,4.3,4.3,39,0.00,,,0.00,WUHU216HW,2013-09-11 20:13:00,
2013-09-11 13:18:00,88.7,60.6,27.36,SE,135,0.7,4.3,39,0.00,,,0.00,WUHU216HW,2013-09-11 20:18:00,
2013-09-11 13:23:00,89.3,61.0,27.35,WSW,248,2.2,2.2,39,0.00,,,0.00,WUHU216HW,2013-09-11 20:23:00,
2013-09-11 13:28:00,89.8,61.5,27.35,SW,225,0.7,2.2,39,0.00,,,0.00,WUHU216HW,2013-09-11 20:28:00,
2013-09-11 13:33:00,90.2,60.2,27.35,SSE,158,1.8,2.5,37,0.00,,,0.00,WUHU216HW,2013-09-11 20:33:00,
2013-09-11 13:38:00,90.4,59.6,27.35,North,0,0.4,2.5,36,0.00,,,0.00,WUHU216HW,2013-09-11 20:38:00,
2013-09-11 13:43:00,90.4,59.6,27.35,West,270,0.9,2.9,36,0.00,,,0.00,WUHU216HW,2013-09-11 20:43:00,
2013-09-11 13:48:00,90.5,59.8,27.35,SW,225,1.8,2.9,36,0.00,,,0.00,WUHU216HW,2013-09-11 20:48:00,
2013-09-11 13:53:00,90.9,59.3,27.34,SE,135,2.0,4.5,35,0.00,,,0.00,WUHU216HW,2013-09-11 20:53:00,
2013-09-11 13:58:00,90.9,59.3,27.34,NE,45,1.6,4.5,35,0.00,,,0.00,WUHU216HW,2013-09-11 20:58:00,
2013-09-11 14:03:00,90.9,59.3,27.34,WNW,293,1.1,1.8,35,0.00,,,0.00,WUHU216HW,2013-09-11 21:03:00,
2013-09-11 14:08:00,90.7,58.3,27.34,SE,135,2.2,3.4,34,0.00,,,0.00,WUHU216HW,2013-09-11 21:08:00,
2013-09-11 14:13:00,90.7,58.3,27.34,SSW,203,0.0,3.4,34,0.00,,,0.00,WUHU216HW,2013-09-11 21:13:00,
2013-09-11 14:18:00,90.7,58.3,27.33,SSE,158,2.2,2.2,34,0.00,,,0.00,WUHU216HW,2013-09-11 21:18:00,
2013-09-11 14:23:00,91.1,57.9,27.33,ESE,113,2.7,3.4,33,0.00,,,0.00,WUHU216HW,2013-09-11 21:23:00,
2013-09-11 14:28:00,91.4,58.1,27.33,ENE,68,1.8,3.4,33,0.00,,,0.00,WUHU216HW,2013-09-11 21:28:00,
2013-09-11 14:33:00,91.8,58.5,27.33,SSE,158,1.1,3.4,33,0.00,,,0.00,WUHU216HW,2013-09-11 21:33:00,
2013-09-11 14:38:00,91.8,57.7,27.33,West,270,1.1,2.7,32,0.00,,,0.00,WUHU216HW,2013-09-11 21:38:00,
2013-09-11 14:43:00,92.0,57.9,27.32,SW,225,1.6,5.4,32,0.00,,,0.00,WUHU216HW,2013-09-11 21:43:00,
2013-09-11 14:48:00,92.3,58.2,27.32,NE,45,1.1,5.4,32,0.00,,,0.00,WUHU216HW,2013-09-11 21:48:00,
2013-09-11 14:53:00,92.2,58.0,27.32,SW,225,0.0,1.3,32,0.00,,,0.00,WUHU216HW,2013-09-11 21:53:00,
2013-09-11 14:58:00,92.3,57.3,27.32,SW,225,3.1,3.1,31,0.00,,,0.00,WUHU216HW,2013-09-11 21:58:00,
2013-09-11 15:03:00,92.5,57.5,27.32,SSW,203,2.5,3.1,31,0.00,,,0.00,WUHU216HW,2013-09-11 22:03:00,
2013-09-11 15:08:00,92.7,57.6,27.32,ESE,113,2.0,2.7,31,0.00,,,0.00,WUHU216HW,2013-09-11 22:08:00,
2013-09-11 15:13:00,92.7,56.8,27.31,WSW,248,0.9,2.7,30,0.00,,,0.00,WUHU216HW,2013-09-11 22:13:00,
2013-09-11 15:18:00,92.7,56.8,27.31,WSW,248,0.4,2.7,30,0.00,,,0.00,WUHU216HW,2013-09-11 22:18:00,
2013-09-11 15:23:00,92.7,56.8,27.31,South,180,0.7,1.8,30,0.00,,,0.00,WUHU216HW,2013-09-11 22:23:00,
2013-09-11 15:28:00,92.5,57.5,27.31,SW,225,0.2,1.3,31,0.00,,,0.00,WUHU216HW,2013-09-11 22:28:00,
2013-09-11 15:33:00,92.7,56.8,27.31,West,270,0.9,1.8,30,0.00,,,0.00,WUHU216HW,2013-09-11 22:33:00,
2013-09-11 15:38:00,92.5,56.7,27.31,NNW,338,0.4,1.8,30,0.00,,,0.00,WUHU216HW,2013-09-11 22:38:00,
2013-09-11 15:43:00,92.2,56.3,27.31,ENE,68,0.9,1.6,30,0.00,,,0.00,WUHU216HW,2013-09-11 22:43:00,
2013-09-11 15:48:00,92.3,56.5,27.30,WSW,248,1.8,1.8,30,0.00,,,0.00,WUHU216HW,2013-09-11 22:48:00,
2013-09-11 15:53:00,92.3,56.5,27.31,SSW,203,0.7,1.8,30,0.00,,,0.00,WUHU216HW,2013-09-11 22:53:00,
2013-09-11 15:58:00,92.3,56.5,27.30,NW,315,0.0,1.3,30,0.00,,,0.00,WUHU216HW,2013-09-11 22:58:00,
2013-09-11 16:03:00,92.5,56.7,27.30,North,0,2.0,2.0,30,0.00,,,0.00,WUHU216HW,2013-09-11 23:03:00,
2013-09-11 16:08:00,92.3,56.5,27.30,North,0,1.3,2.7,30,0.00,,,0.00,WUHU216HW,2013-09-11 23:08:00,
2013-09-11 16:13:00,92.2,56.3,27.30,NNW,338,2.5,4.0,30,0.00,,,0.00,WUHU216HW,2013-09-11 23:13:00,
2013-09-11 16:18:00,92.2,56.3,27.30,NNE,23,2.2,4.0,30,0.00,,,0.00,WUHU216HW,2013-09-11 23:18:00,
2013-09-11 16:23:00,92.0,55.2,27.30,ESE,113,5.4,5.4,29,0.00,,,0.00,WUHU216HW,2013-09-11 23:23:00,
2013-09-11 16:28:00,91.8,56.1,27.30,NNW,338,2.9,5.4,30,0.00,,,0.00,WUHU216HW,2013-09-11 23:28:00,
2013-09-11 16:29:00,91.8,56.1,27.30,NNW,338,1.1,1.1,30,0.00,,,0.00,WUHU216HW,2013-09-11 23:29:00,
2013-09-11 16:33:00,91.8,56.1,27.30,NNW,338,1.1,2.9,30,0.00,,,0.00,WUHU216HW,2013-09-11 23:33:00,
2013-09-11 16:38:00,91.8,56.1,27.30,NNW,338,1.1,2.0,30,0.00,,,0.00,WUHU216HW,2013-09-11 23:38:00,
2013-09-11 16:59:00,92.0,55.2,27.29,North,0,2.2,2.2,29,0.00,,,0.00,WUHU216HW,2013-09-11 23:59:00,
2013-09-11 17:04:00,91.8,56.1,27.29,NNE,23,2.7,4.9,30,0.00,,,0.00,WUHU216HW,2013-09-12 00:04:00,
2013-09-11 17:09:00,91.8,56.1,27.29,NNE,23,2.5,4.9,30,0.00,,,0.00,WUHU216HW,2013-09-12 00:09:00,
2013-09-11 17:14:00,91.6,56.0,27.29,North,0,1.8,2.7,30,0.00,,,0.00,WUHU216HW,2013-09-12 00:14:00,
2013-09-11 17:19:00,91.4,55.8,27.29,NW,315,1.8,2.7,30,0.00,,,0.00,WUHU216HW,2013-09-12 00:19:00,
2013-09-11 17:24:00,91.3,55.6,27.29,NNE,23,1.6,2.5,30,0.00,,,0.00,WUHU216HW,2013-09-12 00:24:00,
2013-09-11 17:29:00,91.1,54.4,27.29,NW,315,1.3,3.4,29,0.00,,,0.00,WUHU216HW,2013-09-12 00:29:00,
2013-09-11 17:34:00,90.9,55.4,27.29,NNE,23,3.4,3.4,30,0.00,,,0.00,WUHU216HW,2013-09-12 00:34:00,
2013-09-11 17:39:00,90.9,55.4,27.29,NNE,23,1.1,3.4,30,0.00,,,0.00,WUHU216HW,2013-09-12 00:39:00,
2013-09-11 17:44:00,90.7,56.0,27.30,NW,315,0.9,2.0,31,0.00,,,0.00,WUHU216HW,2013-09-12 00:44:00,
2013-09-11 17:49:00,90.5,55.8,27.29,NNW,338,2.2,2.5,31,0.00,,,0.00,WUHU216HW,2013-09-12 00:49:00,
2013-09-11 17:54:00,90.4,55.6,27.29,North,0,1.3,2.9,31,0.00,,,0.00,WUHU216HW,2013-09-12 00:54:00,
2013-09-11 17:59:00,90.4,55.6,27.29,NNW,338,1.8,3.4,31,0.00,,,0.00,WUHU216HW,2013-09-12 00:59:00,
2013-09-11 18:04:00,91.1,55.4,27.30,North,0,3.4,3.4,30,0.00,,,0.00,WUHU216HW,2013-09-12 01:04:00,
2013-09-11 18:09:00,91.3,55.6,27.30,NNW,338,2.9,3.4,30,0.00,,,0.00,WUHU216HW,2013-09-12 01:09:00,
2013-09-11 18:14:00,91.1,56.3,27.30,NNW,338,1.8,2.9,31,0.00,,,0.00,WUHU216HW,2013-09-12 01:14:00,
2013-09-11 18:19:00,90.4,55.6,27.30,NNE,23,1.1,2.5,31,0.00,,,0.00,WUHU216HW,2013-09-12 01:19:00,
2013-09-11 18:24:00,89.5,54.0,27.30,NNW,338,2.5,4.0,30,0.00,,,0.00,WUHU216HW,2013-09-12 01:24:00,
2013-09-11 18:29:00,88.7,55.0,27.30,North,0,0.9,4.0,32,0.00,,,0.00,WUHU216HW,2013-09-12 01:29:00,
2013-09-11 18:34:00,88.2,54.6,27.30,NNW,338,0.9,2.9,32,0.00,,,0.00,WUHU216HW,2013-09-12 01:34:00,
2013-09-11 18:39:00,87.7,54.0,27.30,NNW,338,1.8,2.5,32,0.00,,,0.00,WUHU216HW,2013-09-12 01:39:00,
2013-09-11 18:44:00,87.5,53.9,27.30,North,0,2.0,2.9,32,0.00,,,0.00,WUHU216HW,2013-09-12 01:44:00,
2013-09-11 18:49:00,87.1,53.6,27.30,North,0,1.8,3.1,32,0.00,,,0.00,WUHU216HW,2013-09-12 01:49:00,
2013-09-11 18:54:00,86.8,53.3,27.30,NNW,338,3.4,3.4,32,0.00,,,0.00,WUHU216HW,2013-09-12 01:54:00,
2013-09-11 18:59:00,86.4,53.0,27.30,NW,315,3.4,3.4,32,0.00,,,0.00,WUHU216HW,2013-09-12 01:59:00,
2013-09-11 19:04:00,86.2,52.8,27.30,North,0,4.9,4.9,32,0.00,,,0.00,WUHU216HW,2013-09-12 02:04:00,
2013-09-11 19:09:00,86.0,52.8,27.30,North,0,4.0,4.9,32,0.00,,,0.00,WUHU216HW,2013-09-12 02:09:00,
2013-09-11 19:14:00,85.7,53.2,27.30,NW,315,1.8,4.0,33,0.00,,,0.00,WUHU216HW,2013-09-12 02:14:00,
2013-09-11 19:19:00,85.7,53.2,27.31,NNW,338,1.1,4.0,33,0.00,,,0.00,WUHU216HW,2013-09-12 02:19:00,
2013-09-11 19:24:00,85.5,53.0,27.31,ENE,68,0.4,4.0,33,0.00,,,0.00,WUHU216HW,2013-09-12 02:24:00,
2013-09-11 19:29:00,85.3,53.6,27.31,SE,135,0.2,1.1,34,0.00,,,0.00,WUHU216HW,2013-09-12 02:29:00,
2013-09-11 19:34:00,85.1,53.5,27.31,NE,45,0.0,0.9,34,0.00,,,0.00,WUHU216HW,2013-09-12 02:34:00,
2013-09-11 19:39:00,85.1,53.5,27.32,NE,45,0.0,0.4,34,0.00,,,0.00,WUHU216HW,2013-09-12 02:39:00,
2013-09-11 19:44:00,84.8,53.9,27.32,WSW,248,0.0,0.4,35,0.00,,,0.00,WUHU216HW,2013-09-12 02:44:00,
2013-09-11 19:49:00,84.4,53.7,27.32,NE,45,0.0,0.4,35,0.00,,,0.00,WUHU216HW,2013-09-12 02:49:00,
2013-09-11 19:54:00,83.9,54.7,27.32,ENE,68,0.2,0.4,37,0.00,,,0.00,WUHU216HW,2013-09-12 02:54:00,
2013-09-11 19:59:00,83.7,54.5,27.32,SE,135,0.2,0.2,37,0.00,,,0.00,WUHU216HW,2013-09-12 02:59:00,
2013-09-11 20:04:00,83.3,55.0,27.32,ESE,113,0.0,0.2,38,0.00,,,0.00,WUHU216HW,2013-09-12 03:04:00,
2013-09-11 20:09:00,83.0,54.7,27.32,ESE,113,0.0,0.2,38,0.00,,,0.00,WUHU216HW,2013-09-12 03:09:00,
2013-09-11 20:14:00,82.6,55.2,27.32,ESE,113,0.0,0.0,39,0.00,,,0.00,WUHU216HW,2013-09-12 03:14:00,
2013-09-11 20:19:00,82.4,55.0,27.32,NE,45,0.0,0.4,39,0.00,,,0.00,WUHU216HW,2013-09-12 03:19:00,
2013-09-11 20:24:00,82.1,55.4,27.32,SE,135,0.9,0.9,40,0.00,,,0.00,WUHU216HW,2013-09-12 03:24:00,
2013-09-11 20:29:00,81.9,55.4,27.32,SE,135,0.0,1.1,40,0.00,,,0.00,WUHU216HW,2013-09-12 03:29:00,
2013-09-11 20:34:00,81.7,55.8,27.33,NE,45,0.2,1.1,41,0.00,,,0.00,WUHU216HW,2013-09-12 03:34:00,
2013-09-11 20:39:00,81.4,55.4,27.33,NE,45,0.0,0.2,41,0.00,,,0.00,WUHU216HW,2013-09-12 03:39:00,
2013-09-11 20:44:00,81.2,55.3,27.33,East,90,0.9,0.9,41,0.00,,,0.00,WUHU216HW,2013-09-12 03:44:00,
2013-09-11 20:49:00,81.2,55.3,27.33,ENE,68,0.4,0.9,41,0.00,,,0.00,WUHU216HW,2013-09-12 03:49:00,
2013-09-11 20:54:00,81.0,55.1,27.33,ENE,68,1.1,1.6,41,0.00,,,0.00,WUHU216HW,2013-09-12 03:54:00,
2013-09-11 20:59:00,81.0,55.1,27.33,NNE,23,0.2,1.6,41,0.00,,,0.00,WUHU216HW,2013-09-12 03:59:00,
2013-09-11 21:01:00,81.0,55.1,27.33,NE,45,0.0,1.1,41,0.00,,,0.00,WUHU216HW,2013-09-12 04:01:00,
2013-09-11 21:02:00,81.0,55.1,27.33,NE,45,0.2,1.1,41,0.00,,,0.00,WUHU216HW,2013-09-12 04:02:00,
2013-09-11 21:07:00,81.0,55.1,27.33,ESE,113,0.4,0.4,41,0.00,,,0.00,WUHU216HW,2013-09-12 04:07:00,
2013-09-11 21:12:00,80.6,54.8,27.33,SSE,158,0.0,0.4,41,0.00,,,0.00,WUHU216HW,2013-09-12 04:12:00,
2013-09-11 21:17:00,80.6,54.8,27.33,ESE,113,0.0,0.4,41,0.00,,,0.00,WUHU216HW,2013-09-12 04:17:00,
2013-09-11 21:22:00,80.5,54.6,27.33,ESE,113,0.0,0.2,41,0.00,,,0.00,WUHU216HW,2013-09-12 04:22:00,
2013-09-11 21:27:00,80.5,55.3,27.33,SE,135,0.2,0.4,42,0.00,,,0.00,WUHU216HW,2013-09-12 04:27:00,
2013-09-11 21:32:00,80.3,55.1,27.33,SE,135,0.0,0.4,42,0.00,,,0.00,WUHU216HW,2013-09-12 04:32:00,
2013-09-11 21:37:00,80.1,54.9,27.33,SE,135,0.0,0.4,42,0.00,,,0.00,WUHU216HW,2013-09-12 04:37:00,
2013-09-11 21:42:00,79.9,55.4,27.33,SE,135,0.0,0.0,43,0.00,,,0.00,WUHU216HW,2013-09-12 04:42:00,
2013-09-11 21:47:00,79.6,55.6,27.33,North,0,0.0,0.0,44,0.00,,,0.00,WUHU216HW,2013-09-12 04:47:00,
2013-09-11 21:52:00,79.4,56.1,27.33,NNE,23,0.0,0.0,45,0.00,,,0.00,WUHU216HW,2013-09-12 04:52:00,
2013-09-11 21:57:00,79.2,56.0,27.33,NE,45,0.0,0.0,45,0.00,,,0.00,WUHU216HW,2013-09-12 04:57:00,
2013-09-11 22:02:00,78.8,55.6,27.33,SE,135,0.4,0.9,45,0.00,,,0.00,WUHU216HW,2013-09-12 05:02:00,
2013-09-11 22:07:00,78.7,56.1,27.34,NE,45,0.0,0.9,46,0.00,,,0.00,WUHU216HW,2013-09-12 05:07:00,
2013-09-11 22:12:00,78.5,55.9,27.34,NE,45,0.0,0.0,46,0.00,,,0.00,WUHU216HW,2013-09-12 05:12:00,
2013-09-11 22:17:00,78.3,56.3,27.34,NE,45,0.0,0.0,47,0.00,,,0.00,WUHU216HW,2013-09-12 05:17:00,
2013-09-11 22:22:00,78.1,56.2,27.34,NE,45,0.0,0.0,47,0.00,,,0.00,WUHU216HW,2013-09-12 05:22:00,
2013-09-11 22:27:00,77.9,56.1,27.34,NNE,23,0.0,0.0,47,0.00,,,0.00,WUHU216HW,2013-09-12 05:27:00,
2013-09-11 22:32:00,77.8,56.5,27.33,NNE,23,0.0,0.0,48,0.00,,,0.00,WUHU216HW,2013-09-12 05:32:00,
2013-09-11 22:37:00,77.6,56.4,27.33,NNE,23,0.0,0.4,48,0.00,,,0.00,WUHU216HW,2013-09-12 05:37:00,
2013-09-11 22:42:00,77.4,56.2,27.33,NNE,23,0.0,0.4,48,0.00,,,0.00,WUHU216HW,2013-09-12 05:42:00,
2013-09-11 22:47:00,77.2,56.6,27.34,NE,45,0.0,0.0,49,0.00,,,0.00,WUHU216HW,2013-09-12 05:47:00,
2013-09-11 22:52:00,77.0,56.4,27.34,NE,45,0.0,0.0,49,0.00,,,0.00,WUHU216HW,2013-09-12 05:52:00,
2013-09-11 22:57:00,77.0,56.4,27.34,NNE,23,0.0,0.0,49,0.00,,,0.00,WUHU216HW,2013-09-12 05:57:00,
2013-09-11 23:02:00,76.7,56.7,27.34,NNE,23,0.0,0.0,50,0.00,,,0.00,WUHU216HW,2013-09-12 06:02:00,
2013-09-11 23:07:00,76.5,57.1,27.34,NNE,23,0.0,0.0,51,0.00,,,0.00,WUHU216HW,2013-09-12 06:07:00,
2013-09-11 23:12:00,76.1,56.8,27.34,NNE,23,0.0,0.0,51,0.00,,,0.00,WUHU216HW,2013-09-12 06:12:00,
2013-09-11 23:17:00,75.8,57.0,27.34,North,0,0.0,0.0,52,0.00,,,0.00,WUHU216HW,2013-09-12 06:17:00,
2013-09-11 23:22:00,75.6,56.8,27.34,North,0,0.0,0.0,52,0.00,,,0.00,WUHU216HW,2013-09-12 06:22:00,
2013-09-11 23:27:00,75.4,57.2,27.34,North,0,0.0,0.0,53,0.00,,,0.00,WUHU216HW,2013-09-12 06:27:00,
2013-09-11 23:32:00,75.2,57.0,27.34,North,0,0.0,0.0,53,0.00,,,0.00,WUHU216HW,2013-09-12 06:32:00,
2013-09-11 23:37:00,75.2,57.0,27.34,North,0,0.0,0.0,53,0.00,,,0.00,WUHU216HW,2013-09-12 06:37:00,
2013-09-11 23:42:00,74.9,57.1,27.33,North,0,0.0,0.0,54,0.00,,,0.00,WUHU216HW,2013-09-12 06:42:00,
2013-09-11 23:47:00,74.7,57.4,27.34,North,0,0.0,0.0,55,0.00,,,0.00,WUHU216HW,2013-09-12 06:47:00,
2013-09-11 23:52:00,74.5,57.2,27.34,North,0,0.0,0.0,55,0.00,,,0.00,WUHU216HW,2013-09-12 06:52:00,
2013-09-11 23:57:00,74.2,57.4,27.34,North,0,0.0,0.2,56,0.00,,,0.00,WUHU216HW,2013-09-12 06:57:00,